Zurück zum Katalog

STARLINK-34272

AktivKommunikationVLEO
NORAD 64274·PAYLOAD·🇺🇸 United States

Gestartet Jun 4, 2025 von Vandenberg Space Force Base

Loading…

Nächste Überflüge (nächste 24 Stunden)

TLE

AktuellSource: CelesTrak SupGP

Epoche: Sep 14, 2026, 15:33 UTC

1 64274C 25120U   26257.64840278  .00043631  00000+0  12894-2 0  2573
2 64274  53.1594 316.7583 0001293  75.0814  89.4677 15.34361534    12

Verfolge STARLINK-34272 in Echtzeit mit AllMySat

Download on the App Store